Weather History for PASI - September, 2013

Change the Weather History Date:

Friday, September 13, 2013

  Actual Average Record
Temperature  
Mean Temperature 55 °F -  
Max Temperature 64 °F 59 °F 70 °F (1986)
Min Temperature 48 °F 48 °F 33 °F (1992)
Degree Days  
Heating Degree Days 10    
Growing Degree Days 5 (Base 50)    
Moisture  
Dew Point 50 °F    
Average Humidity 84    
Maximum Humidity 96    
Minimum Humidity 67    
Precipitation  
Precipitation 0.00 in - - ()
Sea Level Pressure  
Sea Level Pressure 30.07 in    
Wind  
Wind Speed 3 mph (SSE)    
Max Wind Speed 8 mph    
Max Gust Speed -    
Visibility 10 miles    
Events      
Averages and records for this station are not official NWS values.
T = Trace of Precipitation, MM = Missing Value Source: NWS Daily Summary

Daily Weather History Graph

Daily Weather History Graph

Search for Another Location

Airport or City:

Trip Planner

Search our weather history database for the weather conditions in past years. The results will help you decide how hot, cold, wet, or windy it might be!

Date:

Astronomy

Sep. 13, 2013 Rise Set
Actual Time 6:28 AM AKDT 7:24 PM AKDT
Civil Twilight 5:50 AM AKDT 8:02 PM AKDT
Nautical Twilight 5:02 AM AKDT 8:50 PM AKDT
Astronomical Twilight 4:10 AM AKDT 9:41 PM AKDT
Moon 4:11 PM AKDT (9/13) No Moon Set
Length of Visible Light 14h 12m
Length of Day
12h 55m
Waxing Gibbous, 63% of the Moon is Illuminated
Sep 13
Waxing Gibbous
Sep 19
Full
Sep 26
Last Quarter
Oct 4
New
Oct 11
First Quarter

Hourly Weather History & Observations

Time (AKDT) Temp. Dew Point Humidity Pressure Visibility Wind Dir Wind Speed Gust Speed Precip Events Conditions
12:53 AM 52.0 °F 50.0 °F 93% 30.11 in 10.0 mi Calm Calm - N/A   Clear
1:53 AM 50.0 °F 48.9 °F 96% 30.12 in 10.0 mi East 3.5 mph - N/A   Clear
2:05 AM 50.0 °F 48.0 °F 93% 30.11 in 10.0 mi East 3.5 mph - N/A   Partly Cloudy
2:53 AM 50.0 °F 48.0 °F 93% 30.12 in 10.0 mi Calm Calm - N/A   Partly Cloudy
3:53 AM 50.0 °F 48.9 °F 96% 30.12 in 10.0 mi East 3.5 mph - N/A   Clear
4:53 AM 50.0 °F 46.9 °F 89% 30.11 in 10.0 mi Calm Calm - N/A   Clear
5:53 AM 48.9 °F 46.9 °F 93% 30.11 in 10.0 mi Calm Calm - N/A   Clear
6:53 AM 50.0 °F 48.0 °F 93% 30.11 in 10.0 mi Calm Calm - N/A   Clear
7:53 AM 52.0 °F 50.0 °F 93% 30.11 in 10.0 mi ESE 3.5 mph - N/A   Clear
8:53 AM 55.0 °F 48.9 °F 80% 30.10 in 10.0 mi Calm Calm - N/A   Clear
9:53 AM 55.9 °F 51.1 °F 84% 30.10 in 10.0 mi NNW 8.1 mph - N/A   Clear
10:53 AM 57.9 °F 48.9 °F 72% 30.08 in 10.0 mi NW 6.9 mph - N/A   Clear
11:53 AM 59.0 °F 51.1 °F 75% 30.08 in 10.0 mi Variable 3.5 mph - N/A   Overcast
12:53 PM 60.1 °F 52.0 °F 75% 30.09 in 10.0 mi SW 8.1 mph - N/A   Mostly Cloudy
1:53 PM 61.0 °F 53.1 °F 75% 30.09 in 10.0 mi SW 6.9 mph - N/A   Mostly Cloudy
2:53 PM 62.1 °F 52.0 °F 70% 30.08 in 10.0 mi SW 4.6 mph - N/A   Mostly Cloudy
3:53 PM 61.0 °F 52.0 °F 72% 30.05 in 10.0 mi SW 3.5 mph - N/A   Scattered Clouds
4:53 PM 61.0 °F 50.0 °F 67% 30.04 in 10.0 mi WSW 4.6 mph - N/A   Scattered Clouds
5:53 PM 62.1 °F 53.1 °F 72% 30.02 in 10.0 mi SW 5.8 mph - N/A   Partly Cloudy
6:53 PM 60.1 °F 51.1 °F 72% 30.00 in 10.0 mi Calm Calm - N/A   Partly Cloudy
7:53 PM 57.0 °F 52.0 °F 83% 30.00 in 10.0 mi East 4.6 mph - N/A   Mostly Cloudy
8:53 PM 55.9 °F 52.0 °F 87% 29.99 in 10.0 mi East 3.5 mph - N/A   Clear
9:53 PM 55.9 °F 52.0 °F 87% 29.98 in 10.0 mi Calm Calm - N/A   Scattered Clouds
10:53 PM 54.0 °F 52.0 °F 93% 29.98 in 10.0 mi Calm Calm - N/A   Partly Cloudy
11:53 PM 54.0 °F 51.1 °F 90% 29.97 in 10.0 mi ESE 3.5 mph - N/A   Partly Cloudy